Location: downtown San Diego
(32.7310°N, 117.1990°W)
Time: 03:33:54
(UTC-07:00)

NOSS 2-3 (C) - Pass Details

Date: 14 June 2018
Orbit: 626 x 1586 km, 63.4° (Epoch: 22 July)

Event Time Altitude Azimuth Distance (km) Brightness Sun altitude
Exits shadow 21:05:51 - 186° (S) 2,814 6.6 -12.7°
Reaches altitude 10° 21:08:01 10° 177° (S) 1,990 5.8 -13.1°
Maximum altitude 21:11:58 33° 113° (ESE) 1,082 4.3 -13.7°
Drops below altitude 10° 21:16:15 10° 49° (NE) 2,167 6.3 -14.4°
Sets 21:18:56 0° 40° (NE) 3,198 7.2 -14.8°
